This is the latest recevied weather packets stored in our database for station/object KV4OP. If no packets are shown the sender has not sent any weather packets the latest 10 day(s).
| Time | Temp. | Humidity | Pressure | Rain* | Wind** | Luminosity | Snow |
|---|---|---|---|---|---|---|---|
| 1787844597 | 30.56° C | 67% | 1018.7 hPa | 0 mm | - | - | - |
| 1787844297 | 30.56° C | 67% | 1018.6 hPa | 0 mm | - | - | - |
| 1787844006 | 30.56° C | 67% | 1018.7 hPa | 0 mm | - | - | - |
| 1787843697 | 30.56° C | 69% | 1018.6 hPa | 0 mm | - | - | - |
| 1787843398 | 30.56° C | 67% | 1018.7 hPa | 0 mm | - | - | - |
| 1787843097 | 30° C | 68% | 1018.6 hPa | 0 mm | - | - | - |
| 1787842807 | 30.56° C | 68% | 1018.6 hPa | 0 mm | - | - | - |
| 1787842504 | 30° C | 69% | 1018.7 hPa | 0 mm | - | - | - |
| 1787842198 | 30° C | 69% | 1018.7 hPa | 0 mm | - | - | - |
| 1787841898 | 30° C | 70% | 1018.6 hPa | 0 mm | - | - | - |
| 1787841607 | 29.44° C | 69% | 1018.5 hPa | 0 mm | - | - | - |
| 1787841298 | 29.44° C | 70% | 1018.4 hPa | 0 mm | - | - | - |
| 1787840997 | 29.44° C | 70% | 1018.4 hPa | 0 mm | - | - | - |
| 1787840698 | 29.44° C | 71% | 1018.4 hPa | 0 mm | - | - | - |
| 1787840408 | 29.44° C | 71% | 1018.3 hPa | 0 mm | - | - | - |
| 1787840097 | 28.89° C | 71% | 1018.2 hPa | 0 mm | - | - | - |
| 1787839798 | 28.89° C | 72% | 1018.2 hPa | 0 mm | - | - | - |
| 1787839498 | 28.89° C | 72% | 1018.2 hPa | 0 mm | - | - | - |
| 1787839212 | 28.89° C | 72% | 1018.2 hPa | 0 mm | - | - | - |
| 1787838901 | 28.33° C | 72% | 1018.1 hPa | 0 mm | - | - | - |
| 1787838598 | 28.33° C | 73% | 1018 hPa | 0 mm | - | - | - |
| 1787838298 | 28.33° C | 73% | 1018.1 hPa | 0 mm | - | - | - |
| 1787838007 | 27.78° C | 74% | 1018.2 hPa | 0 mm | - | - | - |
| 1787837699 | 27.78° C | 75% | 1018 hPa | 0 mm | - | - | - |
| 1787837398 | 27.22° C | 76% | 1018.2 hPa | 0 mm | - | - | - |
* Rain latest hour (hover to see other rain measurements)
** Current wind speed in m/s (hover to see current wind gust speed)